This is the latest recevied weather packets stored in our database for station/object HB9BB-10. If no packets are shown the sender has not sent any weather packets the latest 1 day(s).
| Time | Temp. | Humidity | Pressure | Rain* | Wind** | Luminosity | Snow |
|---|---|---|---|---|---|---|---|
| 1778083254 | 21.11° C | 23% | 1024.4 hPa | - | - | - | - |
| 1778080494 | 21.67° C | 23% | 1024.6 hPa | - | - | - | - |
| 1778079114 | 22.22° C | 23% | 1023.6 hPa | - | - | - | - |
| 1778077734 | 21.67° C | 23% | 1023.5 hPa | - | - | - | - |
| 1778077729 | 21.67° C | 23% | 1023.5 hPa | - | - | - | - |
| 1778076354 | 21.67° C | 23% | 1023.3 hPa | - | - | - | - |
| 1778076349 | 21.67° C | 23% | 1023.3 hPa | - | - | - | - |
| 1778074969 | 21.67° C | 23% | 1023.3 hPa | - | - | - | - |
| 1778070834 | 21.67° C | 23% | 1022.7 hPa | - | - | - | - |
| 1778068068 | 21.67° C | 23% | 1022.8 hPa | - | - | - | - |
| 1778065308 | 21.11° C | 23% | 1022.9 hPa | - | - | - | - |
| 1778063934 | 21.11° C | 23% | 1022.6 hPa | - | - | - | - |
| 1778063928 | 21.11° C | 23% | 1022.6 hPa | - | - | - | - |
| 1778062548 | 21.11° C | 23% | 1023 hPa | - | - | - | - |
| 1778061168 | 21.11° C | 23% | 1023.1 hPa | - | - | - | - |
| 1778058414 | 20.56° C | 23% | 1022.9 hPa | - | - | - | - |
| 1778057034 | 20° C | 23% | 1023 hPa | - | - | - | - |
| 1778055654 | 20° C | 22% | 1023.1 hPa | - | - | - | - |
| 1778054267 | 19.44° C | 22% | 1023.1 hPa | - | - | - | - |
| 1778052893 | 19.44° C | 22% | 1023.1 hPa | - | - | - | - |
| 1778052893 | 19.44° C | 22% | 1023.1 hPa | - | - | - | - |
| 1778052887 | 19.44° C | 22% | 1023.1 hPa | - | - | - | - |
| 1778051514 | 19.44° C | 22% | 1023 hPa | - | - | - | - |
| 1778051507 | 19.44° C | 22% | 1023 hPa | - | - | - | - |
| 1778050127 | 19.44° C | 22% | 1023.1 hPa | - | - | - | - |
* Rain since midnight (hover to see other rain measurements)
** Current wind speed in m/s (hover to see current wind gust speed)